Regional Weather Roundup
Issued by NWS

Home | Current Version | Previous Version | Graphics & Text | Print | Product List | Glossary On
Versions: 1 2 3 4 5 6 7 8 9 10 11 12 13 14 15 16 17 18 19 20 21 22 23 24 25 26 27 28 29 30 31 32 33 34 35 36 37 38 39 40 41 42 43 44 45 46 47 48 49 50
000
ASUS44 KMEG 181610
RWRTN
TENNESSEE HOURLY STATE WEATHER ROUNDUP
NATIONAL WEATHER SERVICE MEMPHIS TN
1100 AM CDT THU SEP 18 2014

TNZ002-004-019-021-049-052-054-088>092-181700-
WEST TENNESSEE

CITY           SKY/WX    TMP DP  RH WIND       PRES   REMARKS
MEMPHIS INTL   PTSUNNY   78  65  63 VRB7      29.98S
NWS MEMPHIS      N/A     73 N/A N/A MISG        N/A
JACKSON        CLOUDY    71  63  75 CALM      30.00F
DYERSBURG      CLOUDY    66  54  63 CALM      30.02R
UNION CITY     PTSUNNY   68  59  73 NE7       30.00S
PARIS          MOSUNNY   68  59  73 E6        30.02F
HUNTINGDON     CLOUDY    68  59  73 E6        30.01F
LEXINGTON      PTSUNNY   72  61  68 CALM      30.00S
SAVANNAH       CLOUDY    73  66  78 CALM      30.01R
$$

TNZ008-025-027-028-033-062-065-066-181700-
NORTH MIDDLE TENNESSEE

CITY           SKY/WX    TMP DP  RH WIND       PRES   REMARKS
NASHVILLE      PTSUNNY   72  57  59 VRB3      30.04S
DICKSON        PTSUNNY   68  57  68 E5        30.03S
PORTLAND       MOSUNNY   70  55  60 VRB6      30.03S
CLARKSVILLE    PTSUNNY   71  57  61 E5        30.03F
LEBANON        PTSUNNY   71  57  61 E3        30.03R
SMYRNA         PTSUNNY   74  58  57 CALM      30.04S
MURFREESBORO   PTSUNNY   72  58  61 VRB5      30.02S
COOKEVILLE     SUNNY     73  59  60 VRB3      30.03F
GALLATIN       PTSUNNY   72  60  65 SE7       30.04F
CROSSVILLE     PTSUNNY   71  52  50 VRB3      30.06F
$$

TNZ061-075-076-078-094-096-097-181700-
SOUTH MIDDLE TENNESSEE

CITY           SKY/WX    TMP DP  RH WIND       PRES   REMARKS
LEWISBURG      PTSUNNY   73  58  59 E3        30.02S
FAYETTEVILLE   PTSUNNY   72  55  56 CALM      30.03R
TULLAHOMA      MOSUNNY   73  48  40 E6        30.04R
WINCHESTER     PTSUNNY   75  54  46 CALM      30.03R
MCMINNVILLE    MOSUNNY   73  61  64 NE5       30.03S
COLUMBIA       PTSUNNY   73  61  64 E6        30.01S
SHELBYVILLE    PTSUNNY   77  57  50 VRB3      30.03S
$$

TNZ017-018-042-046-047-181700-
NORTHEAST TENNESSEE

CITY           SKY/WX    TMP DP  RH WIND       PRES   REMARKS
TRI CITIES     PTSUNNY   68  56  65 S3        30.06S
ELIZABETHTON   SUNNY     66  57  72 S3        30.06S
$$

TNZ012-013-036-069-073-074-181700-
CENTRAL EAST TENNESSEE

CITY           SKY/WX    TMP DP  RH WIND       PRES   REMARKS
KNOXVILLE      PTSUNNY   74  57  55 E5        30.02F
OAK RIDGE      MOSUNNY   73  54  51 CALM      30.05F
GATLINBURG     SUNNY     72  57  60 SE3       30.03S
MORRISTOWN     SUNNY     70  55  60 CALM      30.06S
$$

TNZ083-085-099-181700-
SOUTHEAST TENNESSEE

CITY           SKY/WX    TMP DP  RH WIND       PRES   REMARKS
CHATTANOOGA    MOSUNNY   76  57  51 CALM      30.03R
$$

SKY/WX REPORTED AS FAIR MEANS FEW OR NO CLOUDS BELOW
12 THOUSAND FEET.




USA.gov is the U.S. government's official web portal to all federal, state and local government web resources and services.